,,Stat1,,Stat2,,Stat3,,Stat4,,Wind1,,Wind1,
time,status,PR1M_SUM,status,RH1M_AVG,status,SR1M_AVG,status,TA1M_AVG,status,W1dAve1m,status,W1sAve1m,
1999-09-22, 00:01:00,VALID,0,VALID,100,VALID,-0.0509425,VALID,17.8974,VALID,83,VALID,0.45662,
1999-09-22, 00:02:00,VALID,0,VALID,100,VALID,-0.0849042,VALID,17.9043,VALID,91,VALID,0.452303,
1999-09-22, 00:03:00,VALID,0,VALID,100,VALID,-0.0849042,VALID,17.8974,VALID,94,VALID,0.686883,
1999-09-22, 00:04:00,VALID,0,VALID,100,VALID,-0.0679233,VALID,17.8718,VALID,106,VALID,0.566106,
1999-09-22, 00:05:00,VALID,0,VALID,100,VALID,-0.101885,VALID,17.8586,VALID,113,VALID,0.637767,
1999-09-22, 00:06:00,VALID,0,VALID,100,VALID,-0.0849042,VALID,17.8586,VALID,118,VALID,0.741616,
1999-09-22, 00:07:00,VALID,0,VALID,100,VALID,-0.101885,VALID,17.8939,VALID,128,VALID,0.617393,
1999-09-22, 00:08:00,VALID,0,VALID,100,VALID,-0.101885,VALID,17.933,VALID,135,VALID,0.455469,
1999-09-22, 00:09:00,VALID,0,VALID,100,VALID,-0.0849042,VALID,17.9687,VALID,138,VALID,0.475718,
1999-09-22, 00:10:00,VALID,0,VALID,100,VALID,-0.101885,VALID,18.0045,VALID,145,VALID,0.507401,
1999-09-22, 00:11:00,VALID,0,VALID,100,VALID,-0.0679233,VALID,18.0304,VALID,157,VALID,0.549079,
1999-09-22, 00:12:00,VALID,0,VALID,100,VALID,-0.101885,VALID,18.0015,VALID,174,VALID,0.633657,
1999-09-22, 00:13:00,VALID,0,VALID,100,VALID,-0.118866,VALID,17.9752,VALID,178,VALID,0.755962,
1999-09-22, 00:14:01,VALID,0,VALID,100,VALID,-0.0849042,VALID,17.953,VALID,184,VALID,0.678043,
1999-09-22, 00:15:00,VALID,0,VALID,100,VALID,-0.0679233,VALID,17.9618,VALID,177,VALID,0.591016,
1999-09-22, 00:16:00,VALID,0,VALID,100,VALID,0.0509425,VALID,17.9478,VALID,172,VALID,0.385742,
1999-09-22, 00:17:00,VALID,0,VALID,100,VALID,0.0339617,VALID,17.9124,VALID,173,VALID,0.272461,
1999-09-22, 00:18:00,VALID,0,VALID,100,VALID,0.0169808,VALID,17.8926,VALID,189,VALID,0.402138,
1999-09-22, 00:19:00,VALID,0,VALID,100,VALID,0,VALID,17.9417,VALID,189,VALID,0.289063,
1999-09-22, 00:20:00,VALID,0,VALID,100,VALID,0.0339617,VALID,17.9325,VALID,183,VALID,0.433594,
1999-09-22, 00:21:00,VALID,0,VALID,100,VALID,0,VALID,17.8669,VALID,186,VALID,0.56875,
1999-09-22, 00:22:00,VALID,0,VALID,100,VALID,0.0679233,VALID,17.8743,VALID,200,VALID,0.883681,
1999-09-22, 00:23:00,VALID,0,VALID,100,VALID,0,VALID,17.9099,VALID,192,VALID,0.533984,
1999-09-22, 00:24:00,VALID,0,VALID,100,VALID,0.0169808,VALID,17.8771,VALID,205,VALID,0.328906,
1999-09-22, 00:25:00,VALID,0,VALID,100,VALID,0.0509425,VALID,17.8739,VALID,225,VALID,0.584736,
1999-09-22, 00:26:00,VALID,0,VALID,100,VALID,0,VALID,17.887,VALID,237,VALID,1.02564,
1999-09-22, 00:27:00,VALID,0,VALID,100,VALID,0,VALID,17.9196,VALID,234,VALID,0.991587,
1999-09-22, 00:28:00,VALID,0,VALID,100,VALID,0.0339617,VALID,17.9387,VALID,233,VALID,0.81543,
1999-09-22, 00:29:00,VALID,0,VALID,100,VALID,0.0169808,VALID,17.962,VALID,223,VALID,0.856388,
1999-09-22, 00:30:00,VALID,0,VALID,100,VALID,0,VALID,17.9512,VALID,229,VALID,0.773232,
1999-09-22, 00:31:00,VALID,0,VALID,100,VALID,0.0169808,VALID,17.9646,VALID,220,VALID,0.919034,
1999-09-22, 00:32:00,VALID,0,VALID,100,VALID,0,VALID,17.9935,VALID,199,VALID,0.662162,
1999-09-22, 00:33:00,VALID,0,VALID,100,VALID,0,VALID,18.0096,VALID,211,VALID,0.977196,
1999-09-22, 00:34:00,VALID,0,VALID,100,VALID,0,VALID,18.0325,VALID,219,VALID,1.07918,
1999-09-22, 00:35:00,VALID,0,VALID,100,VALID,0.0339617,VALID,18.0581,VALID,208,VALID,0.986378,
1999-09-22, 00:36:00,VALID,0,VALID,100,VALID,0.0339617,VALID,18.0577,VALID,206,VALID,1.16406,
1999-09-22, 00:37:00,VALID,0,VALID,100,VALID,0.0169808,VALID,18.0773,VALID,192,VALID,1.15329,
1999-09-22, 00:38:00,VALID,0,VALID,100,VALID,0.0169808,VALID,18.1061,VALID,185,VALID,1.13405,
1999-09-22, 00:39:00,VALID,0,VALID,100,VALID,0,VALID,18.1029,VALID,194,VALID,1.13034,
1999-09-22, 00:40:00,VALID,0,VALID,100,VALID,0.0169808,VALID,18.1193,VALID,185,VALID,1.21114,
1999-09-22, 00:41:00,VALID,0,VALID,100,VALID,0.0169808,VALID,18.1191,VALID,173,VALID,0.807736,
1999-09-22, 00:42:00,VALID,0,VALID,100,VALID,0,VALID,18.1031,VALID,172,VALID,0.909108,
1999-09-22, 00:43:00,VALID,0,VALID,100,VALID,0.0169808,VALID,18.0971,VALID,157,VALID,0.891447,
1999-09-22, 00:44:00,VALID,0,VALID,100,VALID,0,VALID,18.081,VALID,169,VALID,1.23496,
1999-09-22, 00:45:00,VALID,0,VALID,100,VALID,0.0169808,VALID,18.1038,VALID,170,VALID,1.04307,
1999-09-22, 00:46:00,VALID,0,VALID,100,VALID,0.0169808,VALID,18.0743,VALID,167,VALID,0.966077,
1999-09-22, 00:47:00,VALID,0,VALID,100,VALID,0,VALID,18.0743,VALID,176,VALID,1.14864,
1999-09-22, 00:48:01,VALID,0,VALID,100,VALID,-0.0169808,VALID,18.0782,VALID,177,VALID,1.22234,
1999-09-22, 00:49:00,VALID,0,VALID,100,VALID,0,VALID,18.065,VALID,190,VALID,0.900905,
1999-09-22, 00:50:00,VALID,0,VALID,100,VALID,0.0169808,VALID,18.0713,VALID,192,VALID,1.67475,
1999-09-22, 00:51:00,VALID,0,VALID,100,VALID,0,VALID,18.0971,VALID,194,VALID,1.60605,
1999-09-22, 00:52:00,VALID,0,VALID,100,VALID,0.0339617,VALID,18.1101,VALID,185,VALID,1.02559,
1999-09-22, 00:53:00,VALID,0,VALID,100,VALID,0.0339617,VALID,18.1225,VALID,209,VALID,1.20625,
1999-09-22, 00:54:00,VALID,0,VALID,100,VALID,0.0169808,VALID,18.1482,VALID,200,VALID,1.46731,
1999-09-22, 00:55:00,VALID,0,VALID,100,VALID,0,VALID,18.1713,VALID,218,VALID,0.965545,
1999-09-22, 00:56:00,VALID,0,VALID,100,VALID,0,VALID,18.177,VALID,193,VALID,1.15625,
1999-09-22, 00:57:00,VALID,0,VALID,100,VALID,0,VALID,18.1969,VALID,195,VALID,1.28242,
1999-09-22, 00:58:00,VALID,0,VALID,100,VALID,0,VALID,18.1867,VALID,187,VALID,1.1263,
1999-09-22, 00:59:00,VALID,0,VALID,100,VALID,0.0169808,VALID,18.2001,VALID,172,VALID,0.736914,
1999-09-22, 01:00:00,VALID,0,VALID,100,VALID,0,VALID,18.2064,VALID,159,VALID,1.0334,
1999-09-22, 01:01:00,VALID,0,VALID,100,VALID,0,VALID,18.2262,VALID,174,VALID,0.895032,
1999-09-22, 01:02:00,VALID,0,VALID,100,VALID,0,VALID,18.229,VALID,180,VALID,0.585938,
1999-09-22, 01:03:00,VALID,0,VALID,100,VALID,0,VALID,18.2421,VALID,198,VALID,1.28265,
1999-09-22, 01:04:00,VALID,0,VALID,100,VALID,0,VALID,18.2782,VALID,196,VALID,1.19199,
1999-09-22, 01:05:00,VALID,0,VALID,100,VALID,0.0169808,VALID,18.2809,VALID,204,VALID,1.15303,
1999-09-22, 01:06:00,VALID,0,VALID,100,VALID,0,VALID,18.2846,VALID,198,VALID,1.35156,
1999-09-22, 01:07:00,VALID,0,VALID,100,VALID,-0.0169808,VALID,18.2909,VALID,192,VALID,1.20028,
1999-09-22, 01:08:00,VALID,0,VALID,100,VALID,0,VALID,18.2904,VALID,197,VALID,0.832137,
1999-09-22, 01:09:00,VALID,0,VALID,100,VALID,0,VALID,18.3006,VALID,224,VALID,0.846284,
1999-09-22, 01:10:01,VALID,0,VALID,100,VALID,0,VALID,18.317,VALID,220,VALID,0.943834,
1999-09-22, 01:11:00,VALID,0,VALID,100,VALID,0,VALID,18.3329,VALID,217,VALID,1.252,
1999-09-22, 01:12:00,VALID,0,VALID,100,VALID,0,VALID,18.3426,VALID,222,VALID,1.15937,
1999-09-22, 01:13:00,VALID,0,VALID,100,VALID,0,VALID,18.3424,VALID,230,VALID,0.853041,
1999-09-22, 01:14:00,VALID,0,VALID,100,VALID,0,VALID,18.3486,VALID,227,VALID,0.924753,
1999-09-22, 01:15:00,VALID,0,VALID,100,VALID,0.0339617,VALID,18.3525,VALID,235,VALID,1.06269,
1999-09-22, 01:16:00,VALID,0,VALID,100,VALID,0.0169808,VALID,18.3458,VALID,243,VALID,1.00535,
1999-09-22, 01:17:00,VALID,0,VALID,100,VALID,0,VALID,18.3523,VALID,246,VALID,1.0162,
1999-09-22, 01:18:00,VALID,0,VALID,100,VALID,0.0169808,VALID,18.359,VALID,228,VALID,0.789063,
1999-09-22, 01:19:00,VALID,0,VALID,100,VALID,0,VALID,18.3354,VALID,238,VALID,0.609581,
1999-09-22, 01:20:00,VALID,0,VALID,100,VALID,0,VALID,18.3262,VALID,210,VALID,0.650781,
1999-09-22, 01:21:01,VALID,0,VALID,100,VALID,0.0169808,VALID,18.3262,VALID,214,VALID,0.606419,
1999-09-22, 01:22:00,VALID,0,VALID,100,VALID,0,VALID,18.3167,VALID,206,VALID,0.495888,
1999-09-22, 01:23:00,VALID,0,VALID,100,VALID,0,VALID,18.3107,VALID,215,VALID,0.190104,
1999-09-22, 01:24:00,VALID,0,VALID,100,VALID,0,VALID,18.3075,VALID,209,VALID,0.507601,
1999-09-22, 01:25:00,VALID,0,VALID,100,VALID,0,VALID,18.2906,VALID,215,VALID,0.782895,
1999-09-22, 01:26:00,VALID,0,VALID,100,VALID,0,VALID,18.2775,VALID,220,VALID,1.16756,
1999-09-22, 01:27:00,VALID,0,VALID,100,VALID,0.0169808,VALID,18.2872,VALID,221,VALID,1.08652,
1999-09-22, 01:28:00,VALID,0,VALID,100,VALID,0,VALID,18.3001,VALID,220,VALID,0.99668,
1999-09-22, 01:29:00,VALID,0,VALID,100,VALID,0,VALID,18.3264,VALID,218,VALID,1.11016,
1999-09-22, 01:30:00,VALID,0,VALID,100,VALID,0.0169808,VALID,18.3267,VALID,215,VALID,1.11328,
1999-09-22, 01:31:00,VALID,0,VALID,100,VALID,0.0169808,VALID,18.3294,VALID,205,VALID,1.01402,
1999-09-22, 01:32:01,VALID,0,VALID,100,VALID,0.0339617,VALID,18.3359,VALID,205,VALID,1.15892,
1999-09-22, 01:33:00,VALID,0,VALID,100,VALID,0.0169808,VALID,18.3324,VALID,207,VALID,0.961719,
1999-09-22, 01:34:00,VALID,0,VALID,100,VALID,0,VALID,18.3234,VALID,199,VALID,1.04861,
1999-09-22, 01:35:00,VALID,0,VALID,100,VALID,0,VALID,18.307,VALID,191,VALID,0.961328,
1999-09-22, 01:36:00,VALID,0,VALID,100,VALID,0.0339617,VALID,18.2837,VALID,182,VALID,1.00898,
1999-09-22, 01:37:00,VALID,0,VALID,100,VALID,0.0169808,VALID,18.2645,VALID,175,VALID,0.927083,
1999-09-22, 01:38:00,VALID,0,VALID,100,VALID,0,VALID,18.2553,VALID,184,VALID,0.927885,
1999-09-22, 01:39:00,VALID,0,VALID,100,VALID,0,VALID,18.2322,VALID,185,VALID,0.929087,
1999-09-22, 01:40:00,VALID,0,VALID,100,VALID,0,VALID,18.2458,VALID,205,VALID,0.777344,
1999-09-22, 01:41:00,VALID,0,VALID,100,VALID,0.0339617,VALID,18.2518,VALID,200,VALID,0.839614,
1999-09-22, 01:42:00,VALID,0,VALID,100,VALID,0,VALID,18.2613,VALID,193,VALID,0.707031,
1999-09-22, 01:43:01,VALID,0,VALID,100,VALID,0,VALID,18.2518,VALID,188,VALID,1.06558,
1999-09-22, 01:44:00,VALID,0,VALID,100,VALID,0,VALID,18.2421,VALID,177,VALID,1.04033,
1999-09-22, 01:45:00,VALID,0,VALID,100,VALID,-0.0169808,VALID,18.2491,VALID,178,VALID,0.9394,
1999-09-22, 01:46:00,VALID,0,VALID,100,VALID,-0.101885,VALID,18.247,VALID,183,VALID,1.33488,
1999-09-22, 01:47:00,VALID,0,VALID,100,VALID,-0.101885,VALID,18.2535,VALID,181,VALID,0.9375,
1999-09-22, 01:48:00,VALID,0,VALID,100,VALID,-0.0679233,VALID,18.2177,VALID,185,VALID,0.931696,
1999-09-22, 01:49:00,VALID,0,VALID,100,VALID,-0.0679233,VALID,18.2237,VALID,186,VALID,1.14992,
1999-09-22, 01:50:00,VALID,0,VALID,100,VALID,-0.101885,VALID,18.2204,VALID,185,VALID,1.18812,
1999-09-22, 01:51:00,VALID,0,VALID,100,VALID,-0.0849042,VALID,18.2013,VALID,190,VALID,1.05621,
1999-09-22, 01:52:00,VALID,0,VALID,100,VALID,-0.0849042,VALID,18.2149,VALID,188,VALID,1.47142,
1999-09-22, 01:53:00,VALID,0,VALID,100,VALID,-0.101885,VALID,18.2075,VALID,197,VALID,1.34356,
1999-09-22, 01:54:01,VALID,0,VALID,100,VALID,-0.0679233,VALID,18.2117,VALID,194,VALID,1.14539,
1999-09-22, 01:55:00,VALID,0,VALID,100,VALID,-0.0679233,VALID,18.189,VALID,198,VALID,1.05181,
1999-09-22, 01:56:00,VALID,0,VALID,100,VALID,-0.0849042,VALID,18.1634,VALID,204,VALID,1.20137,
1999-09-22, 01:57:00,VALID,0,VALID,100,VALID,-0.0849042,VALID,18.1336,VALID,207,VALID,1.24092,
1999-09-22, 01:58:00,VALID,0,VALID,100,VALID,-0.101885,VALID,18.1082,VALID,193,VALID,0.943257,
1999-09-22, 01:59:00,VALID,0,VALID,100,VALID,-0.101885,VALID,18.0955,VALID,188,VALID,1.34615,
1999-09-22, 02:00:00,VALID,0,VALID,100,VALID,-0.0679233,VALID,18.0821,VALID,191,VALID,1.03463,
1999-09-22, 02:01:00,VALID,0,VALID,100,VALID,0,VALID,18.0939,VALID,181,VALID,1.67558,
1999-09-22, 02:02:00,VALID,0,VALID,100,VALID,0,VALID,18.1029,VALID,163,VALID,0.971628,
1999-09-22, 02:03:00,VALID,0,VALID,100,VALID,0,VALID,18.0706,VALID,149,VALID,0.915234,
1999-09-22, 02:04:00,VALID,0,VALID,100,VALID,0,VALID,18.0486,VALID,172,VALID,0.997852,
1999-09-22, 02:05:01,VALID,0,VALID,100,VALID,0.0169808,VALID,18.0484,VALID,183,VALID,1.38535,
1999-09-22, 02:06:00,VALID,0,VALID,100,VALID,0.0679233,VALID,18.035,VALID,179,VALID,1.71813,
1999-09-22, 02:07:00,VALID,0,VALID,100,VALID,0.0169808,VALID,18.0387,VALID,179,VALID,0.921274,
1999-09-22, 02:08:00,VALID,0,VALID,100,VALID,0.0169808,VALID,18.0138,VALID,184,VALID,0.83162,
1999-09-22, 02:09:00,VALID,0,VALID,100,VALID,0,VALID,17.9842,VALID,220,VALID,0.889648,
1999-09-22, 02:10:00,VALID,0,VALID,100,VALID,0,VALID,17.9672,VALID,225,VALID,0.627387,
1999-09-22, 02:11:00,VALID,0,VALID,100,VALID,0,VALID,17.9842,VALID,220,VALID,1.32676,
1999-09-22, 02:12:00,VALID,0,VALID,100,VALID,0.0169808,VALID,18.0394,VALID,221,VALID,1.69043,
1999-09-22, 02:13:00,VALID,0,VALID,100,VALID,0.0169808,VALID,18.0452,VALID,226,VALID,1.42388,
1999-09-22, 02:14:00,VALID,0,VALID,100,VALID,0,VALID,18.0747,VALID,223,VALID,1.62099,
1999-09-22, 02:15:00,VALID,0,VALID,100,VALID,0,VALID,18.0805,VALID,227,VALID,1.46354,
1999-09-22, 02:16:00,VALID,0,VALID,100,VALID,0,VALID,18.1131,VALID,225,VALID,1.47617,
1999-09-22, 02:17:00,VALID,0,VALID,100,VALID,0,VALID,18.1163,VALID,220,VALID,1.48759,
1999-09-22, 02:18:00,VALID,0,VALID,100,VALID,0,VALID,18.1262,VALID,225,VALID,1.37397,
1999-09-22, 02:19:00,VALID,0,VALID,100,VALID,0.0169808,VALID,18.1068,VALID,222,VALID,1.14181,
1999-09-22, 02:20:00,VALID,0,VALID,100,VALID,0,VALID,18.1071,VALID,224,VALID,1.08805,
1999-09-22, 02:21:00,VALID,0,VALID,100,VALID,0,VALID,18.084,VALID,216,VALID,1.15266,
1999-09-22, 02:22:00,VALID,0,VALID,100,VALID,0.0169808,VALID,18.0713,VALID,231,VALID,1.02111,
1999-09-22, 02:23:00,VALID,0,VALID,100,VALID,0.0169808,VALID,18.0517,VALID,216,VALID,1.13822,
1999-09-22, 02:24:00,VALID,0,VALID,100,VALID,0,VALID,18.0327,VALID,221,VALID,0.70625,
1999-09-22, 02:25:00,VALID,0,VALID,100,VALID,-0.0169808,VALID,18.0029,VALID,211,VALID,0.232897,
1999-09-22, 02:26:00,VALID,0,VALID,100,VALID,0,VALID,17.9898,VALID,212,VALID,0.000822368,
1999-09-22, 02:27:00,VALID,0,VALID,100,VALID,0.0339617,VALID,17.9771,VALID,147,VALID,0.305069,
1999-09-22, 02:28:00,VALID,0,VALID,100,VALID,0.0509425,VALID,17.9385,VALID,68,VALID,0.613692,
1999-09-22, 02:29:00,VALID,0,VALID,100,VALID,0,VALID,17.9193,VALID,59,VALID,0.866997,
1999-09-22, 02:30:00,VALID,0,VALID,100,VALID,0,VALID,17.9032,VALID,54,VALID,0.629954,
1999-09-22, 02:31:00,VALID,0,VALID,100,VALID,0,VALID,17.923,VALID,44,VALID,0.248355,
1999-09-22, 02:32:00,VALID,0,VALID,100,VALID,-0.0169808,VALID,17.9355,VALID,35,VALID,0.0912109,
1999-09-22, 02:33:00,VALID,0,VALID,100,VALID,0.0169808,VALID,17.9355,VALID,323,VALID,0,
1999-09-22, 02:34:00,VALID,0,VALID,100,VALID,0,VALID,17.8965,VALID,217,VALID,0.175164,
1999-09-22, 02:35:00,VALID,0,VALID,100,VALID,0.0339617,VALID,17.8288,VALID,213,VALID,0.546474,
1999-09-22, 02:36:00,VALID,0,VALID,100,VALID,-0.0169808,VALID,17.7515,VALID,215,VALID,1.11486,
1999-09-22, 02:37:00,VALID,0,VALID,100,VALID,0,VALID,17.7224,VALID,212,VALID,1.48951,
1999-09-22, 02:38:00,VALID,0,VALID,100,VALID,-0.0339617,VALID,17.7485,VALID,203,VALID,1.26645,
1999-09-22, 02:39:00,VALID,0,VALID,100,VALID,0,VALID,17.8191,VALID,195,VALID,1.13242,
1999-09-22, 02:40:00,VALID,0,VALID,100,VALID,0.0169808,VALID,17.8582,VALID,189,VALID,0.957617,
1999-09-22, 02:41:00,VALID,0,VALID,100,VALID,0,VALID,17.8875,VALID,181,VALID,0.912891,
1999-09-22, 02:42:00,VALID,0,VALID,100,VALID,-0.0169808,VALID,17.8935,VALID,181,VALID,1.09683,
1999-09-22, 02:43:00,VALID,0,VALID,100,VALID,0,VALID,17.9071,VALID,175,VALID,0.73758,
1999-09-22, 02:44:00,VALID,0,VALID,100,VALID,-0.0339617,VALID,17.8584,VALID,151,VALID,0.67537,
1999-09-22, 02:45:00,VALID,0,VALID,100,VALID,-0.0169808,VALID,17.7515,VALID,105,VALID,0.622656,
1999-09-22, 02:46:00,VALID,0,VALID,100,VALID,-0.0169808,VALID,17.6321,VALID,88,VALID,0.99566,
1999-09-22, 02:47:00,VALID,0,VALID,100,VALID,-0.0169808,VALID,17.5578,VALID,107,VALID,1.08164,
1999-09-22, 02:48:00,VALID,0,VALID,100,VALID,0,VALID,17.5155,VALID,115,VALID,1.34199,
1999-09-22, 02:49:00,VALID,0,VALID,100,VALID,-0.0339617,VALID,17.5319,VALID,121,VALID,1.27624,
1999-09-22, 02:50:00,VALID,0,VALID,100,VALID,0,VALID,17.5285,VALID,119,VALID,1.02885,
1999-09-22, 02:51:00,VALID,0,VALID,100,VALID,0,VALID,17.467,VALID,135,VALID,0.745593,
1999-09-22, 02:52:00,VALID,0,VALID,100,VALID,0,VALID,17.4188,VALID,136,VALID,0.749023,
1999-09-22, 02:53:00,VALID,0,VALID,100,VALID,-0.0169808,VALID,17.3606,VALID,130,VALID,0.919118,
1999-09-22, 02:54:00,VALID,0,VALID,100,VALID,0,VALID,17.3093,VALID,121,VALID,0.961349,
1999-09-22, 02:55:00,VALID,0,VALID,100,VALID,-0.0169808,VALID,17.361,VALID,123,VALID,0.878788,
1999-09-22, 02:56:00,VALID,0,VALID,100,VALID,0,VALID,17.4287,VALID,140,VALID,0.901605,
1999-09-22, 02:57:00,VALID,0,VALID,100,VALID,0,VALID,17.555,VALID,191,VALID,0.972128,
1999-09-22, 02:58:01,VALID,0,VALID,100,VALID,0,VALID,17.6808,VALID,157,VALID,0.943412,
1999-09-22, 02:59:00,VALID,0,VALID,100,VALID,0,VALID,17.7519,VALID,183,VALID,1.0597,
1999-09-22, 03:00:00,VALID,0,VALID,100,VALID,-0.0169808,VALID,17.7776,VALID,171,VALID,1.2471,
1999-09-22, 03:01:00,VALID,0,VALID,100,VALID,-0.0169808,VALID,17.7482,VALID,159,VALID,1.14527,
1999-09-22, 03:02:00,VALID,0,VALID,100,VALID,-0.0169808,VALID,17.7321,VALID,154,VALID,1.20847,
1999-09-22, 03:03:00,VALID,0,VALID,100,VALID,0,VALID,17.8032,VALID,165,VALID,1.15568,
1999-09-22, 03:04:00,VALID,0,VALID,100,VALID,0,VALID,17.8491,VALID,176,VALID,0.921875,
1999-09-22, 03:05:00,VALID,0,VALID,100,VALID,-0.0169808,VALID,17.8586,VALID,157,VALID,0.799733,
1999-09-22, 03:06:00,VALID,0,VALID,100,VALID,0,VALID,17.8625,VALID,182,VALID,0.669398,
1999-09-22, 03:07:00,VALID,0,VALID,100,VALID,-0.0339617,VALID,17.8494,VALID,167,VALID,0.949836,
1999-09-22, 03:08:00,VALID,0,VALID,100,VALID,-0.0339617,VALID,17.8784,VALID,172,VALID,1.41094,
1999-09-22, 03:09:00,VALID,0,VALID,100,VALID,0,VALID,17.8944,VALID,176,VALID,1.41997,
1999-09-22, 03:10:00,VALID,0,VALID,100,VALID,0,VALID,17.8916,VALID,174,VALID,1.13713,
1999-09-22, 03:11:00,VALID,0,VALID,100,VALID,-0.0169808,VALID,17.8713,VALID,181,VALID,1.64563,
1999-09-22, 03:12:00,VALID,0,VALID,100,VALID,-0.0509425,VALID,17.8879,VALID,180,VALID,1.27175,
1999-09-22, 03:13:00,VALID,0,VALID,100,VALID,-0.0169808,VALID,17.8978,VALID,186,VALID,1.02488,
1999-09-22, 03:14:00,VALID,0,VALID,100,VALID,-0.0169808,VALID,17.9078,VALID,189,VALID,1.55037,
1999-09-22, 03:15:00,VALID,0,VALID,100,VALID,-0.0679233,VALID,17.8752,VALID,202,VALID,1.31113,
1999-09-22, 03:16:00,VALID,0,VALID,100,VALID,-0.0509425,VALID,17.8942,VALID,193,VALID,1.68711,
1999-09-22, 03:17:00,VALID,0,VALID,100,VALID,-0.0169808,VALID,17.9757,VALID,193,VALID,1.72441,
1999-09-22, 03:18:00,VALID,0,VALID,100,VALID,-0.0509425,VALID,18.0043,VALID,193,VALID,1.59601,
1999-09-22, 03:19:00,VALID,0,VALID,100,VALID,-0.0169808,VALID,18.0202,VALID,186,VALID,1.49239,
1999-09-22, 03:20:00,VALID,0,VALID,100,VALID,-0.0169808,VALID,17.9909,VALID,197,VALID,1.24753,
1999-09-22, 03:21:00,VALID,0,VALID,100,VALID,-0.0169808,VALID,17.9692,VALID,223,VALID,1.34082,
1999-09-22, 03:22:00,VALID,0,VALID,100,VALID,0,VALID,17.9396,VALID,218,VALID,1.24696,
1999-09-22, 03:23:00,VALID,0,VALID,100,VALID,-0.0509425,VALID,17.9369,VALID,223,VALID,1.65762,
1999-09-22, 03:24:00,VALID,0,VALID,100,VALID,-0.0169808,VALID,17.9265,VALID,217,VALID,2.0584,
1999-09-22, 03:25:00,VALID,0,VALID,100,VALID,-0.0339617,VALID,17.956,VALID,223,VALID,1.59675,
1999-09-22, 03:26:00,VALID,0,VALID,100,VALID,0,VALID,17.9657,VALID,211,VALID,1.09175,
1999-09-22, 03:27:00,VALID,0,VALID,100,VALID,-0.0339617,VALID,17.9196,VALID,215,VALID,1.15765,
1999-09-22, 03:28:00,VALID,0,VALID,100,VALID,-0.0679233,VALID,17.9336,VALID,201,VALID,1.27598,
1999-09-22, 03:29:00,VALID,0,VALID,100,VALID,-0.0339617,VALID,17.9235,VALID,196,VALID,1.34145,
1999-09-22, 03:30:00,VALID,0,VALID,100,VALID,-0.0339617,VALID,17.9202,VALID,215,VALID,1.06661,
1999-09-22, 03:31:01,VALID,0,VALID,100,VALID,0,VALID,17.9362,VALID,216,VALID,1.25923,
1999-09-22, 03:32:00,VALID,0,VALID,100,VALID,0,VALID,17.959,VALID,210,VALID,0.990498,
1999-09-22, 03:33:00,VALID,0,VALID,100,VALID,-0.0169808,VALID,17.9717,VALID,183,VALID,0.765203,
1999-09-22, 03:34:00,VALID,0,VALID,100,VALID,0,VALID,17.9327,VALID,154,VALID,0.441301,
1999-09-22, 03:35:00,VALID,0,VALID,100,VALID,-0.0169808,VALID,17.9263,VALID,178,VALID,0.655649,
1999-09-22, 03:36:00,VALID,0,VALID,100,VALID,0,VALID,17.9168,VALID,157,VALID,0.334598,
1999-09-22, 03:37:00,VALID,0,VALID,100,VALID,0,VALID,17.9036,VALID,185,VALID,0.281461,
1999-09-22, 03:38:00,VALID,0,VALID,100,VALID,0,VALID,17.9039,VALID,192,VALID,0.0437911,
1999-09-22, 03:39:00,VALID,0,VALID,100,VALID,-0.0169808,VALID,17.8845,VALID,192,VALID,0,
1999-09-22, 03:40:00,VALID,0,VALID,100,VALID,-0.0169808,VALID,17.8459,VALID,192,VALID,0,
1999-09-22, 03:41:00,VALID,0,VALID,100,VALID,-0.0169808,VALID,17.817,VALID,192,VALID,0,
1999-09-22, 03:42:00,VALID,0,VALID,100,VALID,-0.0169808,VALID,17.8138,VALID,244,VALID,0.153392,
1999-09-22, 03:43:01,VALID,0,VALID,100,VALID,-0.0169808,VALID,17.7875,VALID,272,VALID,0.306949,
1999-09-22, 03:44:00,VALID,0,VALID,100,VALID,-0.0169808,VALID,17.794,VALID,303,VALID,0.479883,
1999-09-22, 03:45:00,VALID,0,VALID,100,VALID,-0.0509425,VALID,17.8106,VALID,310,VALID,0.476351,
1999-09-22, 03:46:00,VALID,0,VALID,100,VALID,0.0339617,VALID,17.8,VALID,304,VALID,0.475946,
1999-09-22, 03:47:00,VALID,0,VALID,100,VALID,0.0679233,VALID,17.7667,VALID,303,VALID,0.517428,
1999-09-22, 03:48:00,VALID,0,VALID,100,VALID,0.0679233,VALID,17.7316,VALID,305,VALID,0.486698,
1999-09-22, 03:49:00,VALID,0,VALID,100,VALID,0.0339617,VALID,17.6924,VALID,302,VALID,0.402344,
1999-09-22, 03:50:00,VALID,0,VALID,100,VALID,0.0679233,VALID,17.67,VALID,297,VALID,0.187911,
1999-09-22, 03:51:00,VALID,0,VALID,100,VALID,0.0849042,VALID,17.6504,VALID,297,VALID,0.133789,
1999-09-22, 03:52:00,VALID,0,VALID,100,VALID,0.101885,VALID,17.6504,VALID,293,VALID,0.261523,
1999-09-22, 03:53:00,VALID,0,VALID,100,VALID,0.101885,VALID,17.67,VALID,267,VALID,0.291867,
1999-09-22, 03:54:00,VALID,0,VALID,100,VALID,0.0849042,VALID,17.6575,VALID,242,VALID,0.379112,
1999-09-22, 03:55:00,VALID,0,VALID,100,VALID,0.0679233,VALID,17.5567,VALID,233,VALID,0.375601,
1999-09-22, 03:56:00,VALID,0,VALID,100,VALID,0.101885,VALID,17.4728,VALID,222,VALID,0.716694,
1999-09-22, 03:57:00,VALID,0,VALID,100,VALID,0.0339617,VALID,17.4537,VALID,218,VALID,0.929883,
1999-09-22, 03:58:00,VALID,0,VALID,100,VALID,0.0679233,VALID,17.4957,VALID,208,VALID,0.769748,
1999-09-22, 03:59:00,VALID,0,VALID,100,VALID,0.101885,VALID,17.5345,VALID,194,VALID,0.92207,
1999-09-22, 04:00:00,VALID,0,VALID,100,VALID,0.0849042,VALID,17.6151,VALID,196,VALID,1.0416,
1999-09-22, 04:01:00,VALID,0,VALID,100,VALID,-0.0169808,VALID,17.6871,VALID,202,VALID,1.09235,
1999-09-22, 04:02:00,VALID,0,VALID,100,VALID,0,VALID,17.7261,VALID,201,VALID,0.919671,
1999-09-22, 04:03:00,VALID,0,VALID,100,VALID,-0.0169808,VALID,17.7491,VALID,192,VALID,0.9998,
1999-09-22, 04:04:00,VALID,0,VALID,100,VALID,-0.0169808,VALID,17.8036,VALID,198,VALID,1.0377,
1999-09-22, 04:05:01,VALID,0,VALID,100,VALID,0,VALID,17.8621,VALID,200,VALID,0.840993,
1999-09-22, 04:06:00,VALID,0,VALID,100,VALID,0,VALID,17.8881,VALID,203,VALID,0.79852,
1999-09-22, 04:07:00,VALID,0,VALID,100,VALID,-0.0509425,VALID,17.8879,VALID,203,VALID,0.601799,
1999-09-22, 04:08:00,VALID,0,VALID,100,VALID,-0.0679233,VALID,17.8912,VALID,199,VALID,1.00992,
1999-09-22, 04:09:00,VALID,0,VALID,100,VALID,-0.0169808,VALID,17.9244,VALID,196,VALID,0.366343,
1999-09-22, 04:10:00,VALID,0,VALID,100,VALID,-0.0509425,VALID,17.853,VALID,184,VALID,0.0107686,
1999-09-22, 04:11:00,VALID,0,VALID,100,VALID,-0.0509425,VALID,17.7201,VALID,183,VALID,0.0673077,
1999-09-22, 04:12:00,VALID,0,VALID,100,VALID,-0.0169808,VALID,17.6194,VALID,116,VALID,0.618973,
1999-09-22, 04:13:00,VALID,0,VALID,100,VALID,-0.0169808,VALID,17.5582,VALID,104,VALID,0.657939,
1999-09-22, 04:14:00,VALID,0,VALID,100,VALID,-0.0339617,VALID,17.5481,VALID,125,VALID,0.728002,
1999-09-22, 04:15:00,VALID,0,VALID,100,VALID,-0.0339617,VALID,17.6164,VALID,171,VALID,0.868521,
1999-09-22, 04:16:00,VALID,0,VALID,100,VALID,0.0339617,VALID,17.6633,VALID,197,VALID,1.1801,
1999-09-22, 04:17:00,VALID,0,VALID,100,VALID,0.0849042,VALID,17.7023,VALID,205,VALID,1.25667,
1999-09-22, 04:18:00,VALID,0,VALID,100,VALID,0.0679233,VALID,17.7413,VALID,200,VALID,1.06307,